Flag for U.S.A. Weather past 2 weeks in Allentown, Pennsylvania, U.S.A.

Now
79 °F

Partly sunny.


Feels Like: 81 °F
Forecast: 65 / 81 °F
Wind: 6 mph from Southwest

Location: Lehigh Valley International Airport

Current Time: Aug 21, 2014 at 2:16:55 PM

Latest Report: Aug 21, 2014 at 12:51 PM


Visibility: 10 mi

Pressure: 30.03 "Hg

Humidity: 65%

Dew point: 66 °F

Location of AllentownLocation

Historic Weather in Allentown — Graph

°F

Allentown temperature yesterday

Maximum temperature yesterday: 83 °F (at 2:51 PM)
Minimum temperature yesterday: 65 °F (at 6:51 AM)
Average temperature yesterday: 76 °F

Past Weeks' High & Low Weather Summary

 TemperatureHumidityPressure
High87 °F (Aug 10, 3:51 PM)93% (Aug 9, 4:51 AM)30.16 "Hg (Aug 9, 4:51 AM)
Low51 °F (Aug 16, 4:51 AM)29% (Aug 9, 2:51 PM)29.70 "Hg (Aug 13, 2:51 PM)
Average71 °F63%29.97 "Hg
* Reported Aug 6 12:51 PM — Aug 21 12:51 PM, Allentown, Weather by CustomWeather, © 2014

Note: Actual official high and low records may vary slightly from our data, if they occured in-between our weather recording intervals... More about our weather records

Advertising

Allentown weather history for previous 24 hours

 ConditionsComfort  
Time TempWeatherWind HumidityBarometerVisibility
12:51 PM
Aug 21
79 °FPartly sunny.6 mph65%30.03 "Hg10 mi
11:51 AM77 °FOvercast.5 mph69%30.04 "Hg10 mi
10:51 AM74 °FOvercast.3 mph74%30.05 "Hg10 mi
9:51 AM73 °FMostly cloudy.No wind74%30.05 "Hg10 mi
8:51 AM73 °FScattered clouds.No wind74%30.06 "Hg10 mi
7:51 AM70 °FPassing clouds.No wind79%30.06 "Hg10 mi
6:51 AM68 °FPassing clouds.No wind82%30.04 "Hg10 mi
5:51 AM68 °FClear.3 mph82%30.01 "Hg10 mi
4:51 AM70 °FPassing clouds.6 mph79%30.00 "Hg10 mi
3:51 AM70 °FPassing clouds.No wind76%30.01 "Hg10 mi
2:58 AM72 °FPassing clouds.No wind73%30.01 "Hg10 mi
1:51 AM72 °FOvercast.5 mph73%30.03 "Hg10 mi
12:51 AM73 °FMostly cloudy.6 mph74%30.02 "Hg10 mi
11:51 PM
Aug 20
73 °FMostly cloudy.6 mph79%30.02 "Hg10 mi
10:51 PM76 °FLight rain. Overcast.6 mph67%30.00 "Hg10 mi
9:51 PM77 °FOvercast.3 mph64%29.98 "Hg10 mi
8:51 PM77 °FOvercast.5 mph64%29.98 "Hg10 mi
7:51 PM79 °FOvercast.6 mph58%29.97 "Hg10 mi
6:51 PM80 °FBroken clouds.9 mph56%29.97 "Hg10 mi
5:51 PM81 °FPartly sunny.8 mph56%29.96 "Hg10 mi
4:51 PM83 °FPartly sunny.7 mph53%29.96 "Hg10 mi
3:51 PM83 °FBroken clouds.7 mph50%29.96 "Hg10 mi
2:51 PM83 °FMostly cloudy.6 mph50%29.95 "Hg10 mi
Weather by CustomWeather, © 2014

See weather overviewHow to use our weather pages